Regional Weather Roundup
Issued by NWS

Home | Current Version | Previous Version | Graphics & Text | Print | Product List | Glossary On
Versions: 1 2 3 4 5 6 7 8 9 10 11 12 13 14 15 16 17 18 19 20 21 22 23 24 25 26 27 28
000
ASUS45 KBOU 220810
RWRCO

WEATHER ROUNDUP FOR COLORADO
NATIONAL WEATHER SERVICE DENVER/BOULDER CO
200 AM MDT TUE MAY 22 2018

NOTE: "FAIR" INDICATES FEW OR NO CLOUDS BELOW 12000 FEET WITH NO
SIGNIFICANT WEATHER AND/OR OBSTRUCTIONS TO VISIBILITY.

COZ001>005-013-030-031-220900-
...NORTHWEST COLORADO...

CITY           SKY/WX    TMP DP  RH WIND       PRES   REMARKS
CRAIG          FAIR      41  36  82 CALM      29.98F
HAYDEN         FAIR      48  33  56 SE9       30.01S
MEEKER         FAIR      47  34  60 E3        29.99F
RANGELY        FAIR      64  26  23 E5        29.90S
RABBIT EARS PA FAIR      43  32  65 S5        30.24S
STEAMBOAT SPGS FAIR      47  32  55 CALM      30.02S
WALDEN         FAIR      41  36  81 SE5       30.12F
$$

COZ006>008-011-220900-
...WEST CENTRAL VALLEYS...

CITY           SKY/WX    TMP DP  RH WIND       PRES   REMARKS
GRAND JUNCTION FAIR      65  35  33 E10       29.87F
MONTROSE       FAIR      55  30  38 S9        29.97R
EAGLE          FAIR      48  30  49 SE6       30.04S
RIFLE          FAIR      56  36  47 CALM      29.94F
DELTA          FAIR      61  32  34 E7        29.94R
NUCLA          FAIR      57  28  33 CALM      30.00S
$$

COZ017>023-064>068-220900-
...SOUTHWEST COLORADO...

CITY           SKY/WX    TMP DP  RH WIND       PRES   REMARKS
DURANGO        FAIR      44  39  82 NE7       30.06S
CORTEZ         FAIR      56  35  45 VRB5      29.98S
PAGOSA SPRINGS FAIR      42  38  84 CALM      30.13S
TELLURIDE      FAIR      44  29  55 SE7       30.16F
WOLF CREEK PAS FAIR      34  27  75 S5        30.37S WCI  30
$$

COZ009-010-012-014-032>034-037-058>063-220900-
...CENTRAL COLORADO...

CITY           SKY/WX    TMP DP  RH WIND       PRES   REMARKS
ASPEN          FAIR      47  31  53 S7        30.08S
BUENA VISTA    FAIR      37  33  84 W6        30.17R
COPPER MTN     FAIR      45  19  36 SE6       30.32S
BERTHOUD PASS  FAIR      34  25  69 E9        30.34F WCI  26
COTTONWOOD PAS FAIR      45  37  76 W5        30.23S
GUNNISON       FAIR      42  34  73 N10       30.15
GRANBY         FAIR      41  33  74 SE5       30.13R
KREMMLING      FAIR      45  32  61 CALM      30.09S
LEADVILLE      FAIR      34  31  88 E5        30.22S WCI  30
MONARCH PASS   FAIR      34  28  80 MISG      30.43S
SALIDA         FAIR      45  40  83 CALM      30.21S
SUNLIGHT       FAIR      43  23  45 S5        30.27S
WILKERSON PASS FAIR      41  25  52 E3        30.32R
$$

COZ069>075-220900-
...SAN LUIS VALLEY/SANGRE DE CRISTO MOUNTAINS...

CITY           SKY/WX    TMP DP  RH WIND       PRES   REMARKS
ALAMOSA        FAIR      37  37 100 W5        30.16F
DEL NORTE      FAIR      38  37  97 W5        30.19F
LA VETA PASS   FAIR      37  32  81 SW25      30.34S
SAGUACHE       NOT AVBL
$$

COZ035-036-038>040-220900-
...NORTHERN COLORADO FRONT RANGE...

CITY           SKY/WX    TMP DP  RH WIND       PRES   REMARKS
DENVER INTL AP FAIR      53  39  59 W10       29.96F
AURORA         PTCLDY    51  40  66 SW9       29.98S
FRONT RANGE AP FAIR      56  41  55 SW9       29.97S
ERIE MUNI ARPT FAIR      51  46  82 CALM      30.01S
BOULDER MUN AP FAIR      55  45  67 W5        29.97S
CENTENNIAL     FAIR      56  41  57 W7        30.00R
BROOMFIELD     FAIR      59  43  55 NW14      29.99S
FORT COLLINS   FAIR      56  50  80 NE9       29.97F
LONGMONT       FAIR      57  46  66 NW6       29.97F
$$

COZ041-046-047-076>085-087-088-220900-
...PIKES PEAK/PALMER DIVIDE AND SOUTHERN FOOTHILLS...

CITY           SKY/WX    TMP DP  RH WIND       PRES   REMARKS
COLO. SPRINGS  MOCLDY    51  40  65 NE9       30.03R
A. F. ACADEMY  FAIR      46  38  73 CALM      30.04R
SCHRIEVER AFB  NOT AVBL
CHEYENNE MTN   FAIR      54  35  47 CALM      30.01S
ELLICOTT         N/A    N/A N/A N/A SE10      30.01S
FALCON         FAIR      48  36  62 NE5       30.07S
FORT CARSON    FAIR      50  37  61 N6        30.00S
LIMON          FAIR      52  40  63 VRB3      30.01R
MONUMENT HILL  FAIR      45  34  65 W7        30.08R
CANON CITY     FAIR      59  41  51 W6        29.99S
WALSENBURG     FAIR      54  41  62 SW12      30.03S
TRINIDAD       FAIR      52  44  74 MISG      30.04S
$$

COZ042>045-048>051-090-091-220900-
...NORTHEAST COLORADO...

CITY           SKY/WX    TMP DP  RH WIND       PRES   REMARKS
GREELEY ARPT   FAIR      54  50  86 NW6       29.95S
AKRON          FAIR      57  44  62 S9        29.93F
BURLINGTON     FAIR      54  43  66 S13       29.97R
WRAY           FAIR      55  45  67 W7        29.91S
YUMA           FAIR      52  45  76 SW7       29.91F
STERLING       FAIR      55  54  94 NE6       29.89F
HOLYOKE        FAIR      55  54  94 CALM      29.91S FOG
FORT MORGAN    FAIR      54  51  90 NE10      29.92F
$$

COZ086-089-092>099-220900-
...SOUTHEAST COLORADO...

CITY           SKY/WX    TMP DP  RH WIND       PRES   REMARKS
PUEBLO         FAIR      52  38  58 CALM      29.96S
LA JUNTA       FAIR      60  48  64 SW9       29.95F
LAMAR          FAIR      57  49  74 S12       29.94F
SPRINGFIELD      N/A     61  49  64 SW18G33   29.99S
$$




USA.gov is the U.S. government's official web portal to all federal, state and local government web resources and services.